{"data":{"norad_id":64782,"epoch":"2026-09-20T21:05:01.225824Z","epoch_age_seconds":95228,"freshness":"FRESH","line1":"1 64782U 25147AD  26263.87848641  .00017349  00000+0  52335-3 0  9995","line2":"2 64782  53.1588  52.0259 0000885  94.2476 265.8628 15.34403657 68734","mean_motion":15.34403657,"eccentricity":8.85e-5,"inclination_deg":53.1588,"raan_deg":52.0259,"arg_perigee_deg":94.2476,"mean_anomaly_deg":265.8628,"bstar":0.00052335,"rev_number":6873,"period_min":93.847534410562,"perigee_km":462.08695745469,"apogee_km":463.29778425334,"semimajor_km":6840.829370854,"source":"CELESTRAK","updated_at":"2026-09-21T09:00:35.441973Z"}}